History for Miami, FL

Sunday, December 16, 2012 — View Current Conditions

Jump to Data:

Date:
Airport Code:
Recently Viewed Airport Codes: KMIA
Daily Summary
  Actual Average Record
Temperature
Mean Temperature 74°F 70°F  
Max Temperature 80°F 78°F 85°F (2009)
Min Temperature 67°F 63°F 34°F (1968)
Degree Days
Heating Degree Days 0 1  
Month to date heating degree days 0 12  
Since 1 July heating degree days 1 15  
Cooling Degree Days 9 6  
Month to date cooling degree days 163 116  
Year to date cooling degree days 4603 4488  
Growing Degree Days 23 (Base 50)    
Moisture
Dew Point 65°F    
Average Humidity 75    
Maximum Humidity 87    
Minimum Humidity 62    
Precipitation
Precipitation 0.02 in 0.06 in 1.04 in (1914)
Month to date precipitation 0.51 1.10  
Year to date precipitation 86.94 60.96  
Snow
Snow 0.00 in in in ()
Month to date snowfall 0.0  
Since 1 July snowfall 0.0  
Snow Depth 0.00 in    
Sea Level Pressure
Sea Level Pressure 30.01 in    
Wind
Wind Speed 5 mph (SE)    
Max Wind Speed 16 mph    
Max Gust Speed 23 mph    
Visibility 10 miles    
Events Rain    
T = Trace of Precipitation, MM = Missing Value Source: NWS Daily Summary

Show full METARS

(help) - Comma Delimited File

Hourly Observations

Time(EST) Temperature Dew Point Humidity Sea Level Pressure Visibility Wind Direction Wind Speed Gust Speed Precipitation Events Conditions
12:53 AM 71.1°F 64.0°F 78% 30.03 in 10.0 miles ESE 5.8 mph - N/A   Scattered Clouds
1:53 AM 71.1°F 64.9°F 81% 30.03 in 10.0 miles East 4.6 mph - N/A   Mostly Cloudy
2:53 AM 71.1°F 66.0°F 84% 30.01 in 10.0 miles ESE 5.8 mph - N/A   Scattered Clouds
3:53 AM 69.1°F 64.0°F 84% 30.01 in 10.0 miles ESE 4.6 mph - N/A   Clear
4:53 AM 69.1°F 64.0°F 84% 30.01 in 10.0 miles Calm Calm - N/A   Partly Cloudy
5:53 AM 68.0°F 64.9°F 90% 30.02 in 10.0 miles NNW 3.5 mph - N/A   Scattered Clouds
6:53 AM 69.1°F 64.9°F 87% 30.03 in 10.0 miles Calm Calm - 0.00 in Rain Light Rain
7:53 AM 69.8°F 66.2°F 88% 30.05 in 10.0 miles Calm Calm - N/A   Mostly Cloudy
8:53 AM 73.0°F 66.9°F 81% 30.06 in 10.0 miles Calm Calm - N/A   Scattered Clouds
9:53 AM 75.9°F 66.9°F 74% 30.06 in 10.0 miles ESE 8.1 mph - 0.02 in   Mostly Cloudy
10:53 AM 79.0°F 66.0°F 64% 30.05 in 10.0 miles SE 11.5 mph 17.3 mph N/A   Scattered Clouds
11:53 AM 79.0°F 64.9°F 62% 30.03 in 10.0 miles ESE 12.7 mph - N/A   Mostly Cloudy
12:53 PM 78.1°F 64.9°F 64% 30.01 in 10.0 miles SE 11.5 mph 18.4 mph N/A   Mostly Cloudy
1:53 PM 79.0°F 64.9°F 62% 29.98 in 10.0 miles SSE 10.4 mph 21.9 mph N/A   Mostly Cloudy
2:53 PM 79.0°F 64.9°F 62% 29.97 in 10.0 miles SE 6.9 mph - N/A   Mostly Cloudy
3:53 PM 77.0°F 64.9°F 66% 29.97 in 10.0 miles SE 8.1 mph - N/A   Mostly Cloudy
4:53 PM 77.0°F 64.0°F 64% 29.99 in 10.0 miles SE 5.8 mph - N/A   Mostly Cloudy
5:53 PM 75.0°F 64.0°F 69% 29.98 in 10.0 miles SE 4.6 mph - N/A   Mostly Cloudy
6:53 PM 73.9°F 64.0°F 71% 29.99 in 10.0 miles Calm Calm - N/A   Mostly Cloudy
7:53 PM 73.9°F 64.9°F 73% 29.99 in 10.0 miles Calm Calm - N/A   Mostly Cloudy
8:53 PM 73.0°F 64.9°F 76% 29.99 in 10.0 miles Calm Calm - N/A   Scattered Clouds
9:53 PM 73.0°F 64.9°F 76% 30.01 in 10.0 miles Calm Calm - N/A   Mostly Cloudy
10:53 PM 71.1°F 64.9°F 81% 29.99 in 10.0 miles SSE 3.5 mph - N/A   Mostly Cloudy
11:53 PM 70.0°F 64.0°F 81% 30.00 in 10.0 miles Calm Calm - N/A   Mostly Cloudy